TimeCDT,TemperatureF,Dew PointF,Humidity,Sea Level PressureIn,VisibilityMPH,Wind Direction,Wind SpeedMPH,Gust SpeedMPH,PrecipitationIn,Events,Conditions,WindDirDegrees,DateUTC
12:15 AM,75.2,75.2,100,29.87,10.0,South,5.8,-,0.00,,Clear,170,2013-09-02 05:15:00
12:35 AM,75.2,75.2,100,29.87,10.0,South,5.8,-,0.00,,Clear,170,2013-09-02 05:35:00
12:55 AM,75.2,75.2,100,29.86,10.0,South,5.8,-,0.00,,Clear,180,2013-09-02 05:55:00
1:15 AM,75.2,75.2,100,29.86,10.0,South,4.6,-,0.00,,Clear,190,2013-09-02 06:15:00
1:35 AM,75.2,75.2,100,29.86,8.0,South,5.8,-,0.00,,Clear,190,2013-09-02 06:35:00
1:55 AM,75.2,75.2,100,29.85,10.0,SSW,5.8,-,0.00,,Clear,200,2013-09-02 06:55:00
2:15 AM,75.2,75.2,100,29.85,10.0,SSW,5.8,-,0.00,,Clear,200,2013-09-02 07:15:00
2:35 AM,75.2,75.2,100,29.85,10.0,SSW,5.8,-,0.00,,Clear,200,2013-09-02 07:35:00
2:55 AM,75.2,75.2,100,29.85,10.0,South,5.8,-,0.00,,Partly Cloudy,190,2013-09-02 07:55:00
3:15 AM,75.2,75.2,100,29.85,7.0,South,5.8,-,0.00,,Clear,180,2013-09-02 08:15:00
3:35 AM,75.2,75.2,100,29.85,8.0,South,5.8,-,0.00,,Partly Cloudy,190,2013-09-02 08:35:00
3:55 AM,75.2,75.2,100,29.85,10.0,South,4.6,-,0.00,,Clear,190,2013-09-02 08:55:00
4:15 AM,75.2,75.2,100,29.85,9.0,South,5.8,-,0.00,,Clear,190,2013-09-02 09:15:00
4:35 AM,73.4,73.4,100,29.86,9.0,South,5.8,-,0.00,,Clear,180,2013-09-02 09:35:00
4:55 AM,73.4,73.4,100,29.86,9.0,South,5.8,-,0.00,,Clear,170,2013-09-02 09:55:00
5:15 AM,73.4,73.4,100,29.86,10.0,South,4.6,-,0.00,,Clear,190,2013-09-02 10:15:00
5:35 AM,73.4,73.4,100,29.87,10.0,Calm,Calm,-,0.00,,Clear,0,2013-09-02 10:35:00
5:55 AM,75.2,75.2,100,29.87,8.0,SW,6.9,-,0.00,,Clear,220,2013-09-02 10:55:00
6:15 AM,75.2,75.2,100,29.88,10.0,SW,9.2,-,0.00,,Clear,220,2013-09-02 11:15:00
6:50 AM,75.2,75.2,100,29.88,10.0,South,4.6,-,N/A,,Scattered Clouds,180,2013-09-02 11:50:00
7:50 AM,75.2,75.2,100,29.90,10.0,SW,4.6,-,N/A,,Scattered Clouds,230,2013-09-02 12:50:00
8:50 AM,80.6,75.2,84,29.91,10.0,WSW,5.8,-,N/A,,Scattered Clouds,250,2013-09-02 13:50:00
9:50 AM,84.2,75.2,74,29.93,10.0,WSW,9.2,-,N/A,,Mostly Cloudy,250,2013-09-02 14:50:00
10:50 AM,82.4,75.2,79,29.95,10.0,WSW,11.5,-,N/A,,Overcast,240,2013-09-02 15:50:00
11:50 AM,84.2,75.2,74,29.95,10.0,SW,13.8,23.0,N/A,,Overcast,220,2013-09-02 16:50:00
12:50 PM,87.8,75.2,66,29.95,10.0,WSW,11.5,19.6,N/A,,Scattered Clouds,240,2013-09-02 17:50:00
1:50 PM,86.0,75.2,70,29.93,10.0,WSW,9.2,16.1,N/A,,Mostly Cloudy,250,2013-09-02 18:50:00
2:50 PM,89.6,73.4,59,29.89,10.0,WSW,11.5,18.4,N/A,,Mostly Cloudy,240,2013-09-02 19:50:00
3:50 PM,89.6,73.4,59,29.87,10.0,WSW,12.7,-,N/A,,Scattered Clouds,250,2013-09-02 20:50:00
4:50 PM,89.6,71.6,55,29.87,10.0,West,8.1,17.3,N/A,,Mostly Cloudy,270,2013-09-02 21:50:00
5:50 PM,86.0,73.4,66,29.87,10.0,North,10.4,-,N/A,,Mostly Cloudy,350,2013-09-02 22:50:00
6:50 PM,84.2,75.2,74,29.88,10.0,NNE,5.8,-,N/A,,Mostly Cloudy,20,2013-09-02 23:50:00
7:50 PM,80.6,75.2,84,29.88,10.0,Calm,Calm,-,N/A,,Mostly Cloudy,0,2013-09-03 00:50:00
8:55 PM,78.8,75.2,89,29.90,10.0,Calm,Calm,-,0.00,,Scattered Clouds,0,2013-09-03 01:55:00
9:35 PM,78.8,77.0,94,29.91,10.0,North,3.5,-,0.00,,Clear,350,2013-09-03 02:35:00
9:55 PM,77.0,77.0,100,29.92,10.0,North,-9999.0,-,0.00,,Clear,0,2013-09-03 02:55:00
10:15 PM,78.8,77.0,94,29.92,10.0,Calm,Calm,-,0.00,,Clear,0,2013-09-03 03:15:00
10:35 PM,75.2,75.2,100,29.92,10.0,NNE,3.5,-,0.00,,Clear,20,2013-09-03 03:35:00
10:55 PM,75.2,75.2,100,29.93,10.0,North,4.6,-,0.00,,Clear,10,2013-09-03 03:55:00
11:15 PM,75.2,75.2,100,29.93,10.0,North,3.5,-,0.00,,Clear,10,2013-09-03 04:15:00
11:35 PM,75.2,75.2,100,29.93,10.0,Calm,Calm,-,0.00,,Clear,0,2013-09-03 04:35:00
11:55 PM,73.4,73.4,100,29.93,10.0,Calm,Calm,-,0.00,,Clear,0,2013-09-03 04:55:00